Location: Unspecified
(0.0000°N, 0.0000°E)
Time: 07:45:22
(UTC+00:00)

NOSS 2-1 (E) - Visible Passes

Search period start: 22 January 2018 00:00
Search period end: 01 February 2018 00:00
Orbit: 500 x 1706 km, 63.3° (Epoch: 21 January)

Date Brightness Start Highest point End Pass type
(mag) Time Alt. Az. Time Alt. Az. Time Alt. Az.
22 Jan 6.1 02:51:10 50° SE 02:51:10 50° SE 02:58:28 10° SSE visible
22 Jan 6.7 04:38:35 20° WSW 04:39:32 20° WSW 04:46:29 10° SSW visible
23 Jan 7.0 02:07:31 27° ESE 02:07:31 27° ESE 02:11:58 10° SE visible
23 Jan 6.3 03:54:56 33° SW 03:54:56 33° SW 04:02:29 10° S visible
24 Jan 7.7 01:23:49 12° ESE 01:23:49 12° ESE 01:24:35 10° ESE visible
24 Jan 6.4 03:11:13 39° SSW 03:11:13 39° SSW 03:17:33 10° S visible
25 Jan 6.8 02:27:27 31° SSE 02:27:27 31° SSE 02:31:58 10° SSE visible
25 Jan 7.2 04:14:51 14° SW 04:14:51 14° SW 04:18:14 10° SSW visible
26 Jan 7.5 01:43:37 18° SE 01:43:37 18° SE 01:45:48 10° SE visible
26 Jan 7.0 03:31:01 21° SSW 03:31:01 21° SSW 03:35:08 10° SSW visible
27 Jan 7.1 02:47:07 23° S 02:47:07 23° S 02:50:37 10° S visible
28 Jan 7.4 02:03:09 18° SSE 02:03:09 18° SSE 02:05:20 10° SSE visible
29 Jan 7.8 01:19:09 11° SSE 01:19:09 11° SSE 01:19:28 10° SSE visible
29 Jan 7.5 03:06:32 12° SSW 03:06:32 12° SSW 03:07:28 10° SSW visible
30 Jan 7.6 02:22:27 13° S 02:22:27 13° S 02:23:29 10° S visible
31 Jan 7.8 01:38:20 11° S 01:38:20 11° S 01:38:32 10° S visible
